NOAA-19
1 33591U 09005A 10020.86797687 -.00000093 +00000-0 -27914-4 0 04149
2 33591 098.7746 326.2395 0014208 350.3005 009.7895 14.11018240049132
HUBBLE
1 20580U 90037B 10020.69635005 .00000378 00000-0 16145-4 0 5075
2 20580 028.4693 122.6396 0003374 077.4179 282.6819 15.00880828882565
ISS
1 25544U 98067A 10022.07754745 .00014048 00000-0 85924-4 0 4190
2 25544 051.6438 261.0881 0006748 214.5181 293.0601 15.77653411640452
CO-58
1 28895U 05043F 10021.71687599 .00000152 00000-0 41220-4 0 4930
2 28895 098.0351 270.8720 0018266 027.3484 332.8695 14.59836903225617
FALCON
1 30776U 07006E 10020.93372334 +.00000385 +00000-0 +30734-4 0 07493
2 30776 035.4327 218.1446 0001858 325.8691 034.1905 15.03428780157880
MAST
1 31126U 07012K 10020.63535031 +.00000133 +00000-0 +40645-4 0 07833
2 31126 097.9585 070.1233 0094275 325.3212 034.1873 14.53547625146626
CAPE1
1 31130U 07012P 10021.78374504 -.00000172 00000-0 -28694-4 0 7959
2 31130 097.9597 068.9257 0102582 329.0227 030.4954 14.52124373146419
COMPASS
1 32787U 08021E 10021.70478081 .00000281 00000-0 42325-4 0 5758
2 32787 097.9128 088.3591 0016602 044.7768 315.4778 14.81739720 93807
AAUSAT2
1 32788U 08021F 10020.64114541 +.00000412 +00000-0 +58683-4 0 05692
2 32788 097.9123 087.4032 0016355 048.3124 311.9465 14.81872063093659
DO-64
1 32789U 08021G 10020.72756967 .00000105 00000-0 19933-4 0 5858
2 32789 097.9204 087.8154 0016480 047.3404 312.9198 14.81926600 93660
CO-66
1 32791U 08021J 10021.70657561 .00000174 00000-0 28888-4 0 5653
2 32791 097.9145 088.3888 0016967 042.8715 317.3762 14.81548366 93768
RS-30
1 32953U 08025A 10021.79949354 .00000010 00000-0 00000+0 0 5065
2 32953 082.5031 120.7126 0019751 063.8388 296.4721 12.43002993 75557
TACSAT-3
1 35001U 09028A 10020.48105183 .00003746 00000-0 96498-4 0 1960
2 35001 040.4565 020.2605 0023758 337.0347 022.9405 15.40038916 37843
PHARMSAT
1 35002U 09028B 10020.36273880 +.00003329 +00000-0 +84348-4 0 01966
2 35002 040.4704 019.5942 0026701 340.9460 019.0354 15.40720200037837
HAWKSAT1
1 35003U 09028C 10020.36322708 +.00006582 +00000-0 +15351-3 0 02019
2 35003 040.4626 017.6155 0025698 346.7029 013.3106 15.42174518037867
CP6
1 35004U 09028D 10020.34885402 +.00007658 +00000-0 +17612-3 0 01918
2 35004 040.4632 017.5179 0024884 346.3397 013.6738 15.42454892037859
AEROCUB3
1 35005U 09028E 10020.31184887 +.00014431 +00000-0 +32431-3 0 02009
2 35005 040.4759 018.3902 0024230 342.9992 017.0009 15.42679901037849
DRAGNSAT
1 35690U 09038B 10021.69613950 .00090810 14463-4 23525-3 0 1976
2 35690 051.6350 248.7386 0002462 114.7665 245.4281 15.95066411 27808
POLLUX
1 35693U 09038E 10021.87375692 .00062178 12671-4 18509-3 0 1912
2 35693 051.6358 249.2103 0000497 040.7850 319.3729 15.92776851 27780
CASTOR
1 35694U 09038F 10021.77936244 .00022276 00000-0 92199-4 0 1651
2 35694 051.6400 253.1910 0002345 359.7958 000.3174 15.85764247 27728
METEOR-M
1 35865U 09049A 10021.69077836 .00000176 00000-0 10000-3 0 1078
2 35865 098.7797 076.3908 0003233 066.6733 293.4733 14.21828572 17909
RS-38
1 35869U 09049E 10020.90364909 .00000176 00000-0 10000-3 0 1097
2 35869 098.7780 075.6263 0005430 074.0035 286.1284 14.21973389 17794
